GW1174 Weather Reports


time (UTC)temp
F
wind
direction
speed
knots
gust
knots
rain 1hr
in
rain 24hr
in
rain mn
in
humidity
%
barometer
mb
20260903123017 40 307 0.9 1.7 0.00 0.20 0.20 71 1109.4
20260903122038 71 248 7.8 13.9 0.00 0.00 0.00 60 1020.5
20260903122017 39 309 0.9 1.7 0.00 0.20 0.20 72 1110.0
20260903121018 73 248 7.8 15.6 0.00 0.00 0.00 56 1020.9
20260903120037 73 270 6.1 13.0 0.00 0.00 0.00 58 1020.9
20260903120017 38 315 0.9 1.7 0.00 0.20 0.20 72 1111.0
20260903115037 37 317 0.9 0.9 0.00 0.20 0.20 73 1111.5
20260903114017 37 320 0.9 0.9 0.00 0.20 0.20 73 1112.0
20260903113017 70 270 4.3 8.7 0.00 0.00 0.00 62 1020.9
20260903112037 70 248 5.2 11.3 0.00 0.00 0.00 59 1021.1
20260903112017 35 325 0.9 0.9 0.00 0.20 0.20 74 1113.0
20260903111017 35 327 0.9 0.9 0.00 0.20 0.20 74 1113.4
20260903110037 70 248 6.1 11.3 0.00 0.00 0.00 59 1021.1
20260903110017 34 329 0.9 0.9 0.00 0.20 0.20 75 1113.9
20260903105017 70 270 5.2 11.3 0.00 0.00 0.00 59 1021.1
20260903104017 33 333 0.9 0.9 0.00 0.20 0.20 76 1114.7
20260903103017 33 335 0.9 0.9 0.00 0.20 0.20 76 1115.1
20260903102017 32 337 0.9 0.9 0.00 0.20 0.20 76 1115.5
20260903101017 32 339 0.9 0.9 0.00 0.20 0.20 77 1115.9
20260903100017 32 341 0.9 0.9 0.00 0.20 0.20 77 1116.2
20260903095017 70 315 3.5 7.8 0.00 0.00 0.00 57 1021.4
20260903094017 71 248 5.2 8.7 0.00 0.00 0.00 54 1021.3
20260903093017 71 203 3.5 7.8 0.00 0.00 0.00 57 1021.4
20260903092017 31 347 0.0 0.0 0.00 0.20 0.20 78 1117.5
20260903091017 30 349 0.0 0.0 0.00 0.20 0.20 78 1117.8
20260903090017 30 350 0.0 0.0 0.00 0.20 0.20 78 1118.0
20260903085017 30 351 0.0 0.0 0.00 0.20 0.20 79 1118.3
20260903084017 68 248 3.5 7.8 0.00 0.00 0.00 62 1021.8
20260903083017 30 354 0.0 0.0 0.00 0.20 0.20 79 1118.7
20260903082037 30 355 0.0 0.0 0.00 0.20 0.20 79 1118.9
20260903081017 68 180 1.7 8.7 0.00 0.00 0.00 67 1021.3
20260903080017 67 158 3.5 6.1 0.00 0.00 0.00 67 1021.3
20260903075017 30 357 0.0 0.0 0.00 0.20 0.20 80 1119.4
20260903074017 30 358 0.0 0.0 0.00 0.20 0.20 80 1119.5
20260903073017 31 358 0.0 0.0 0.00 0.20 0.20 80 1119.7
20260903072017 31 359 0.0 0.0 0.00 0.20 0.20 80 1119.8
20260903071017 31 359 0.0 0.0 0.00 0.20 0.20 80 1119.8
20260903070017 58 0.0 0.0 0.00 0.00 0.00 92 1021.3
20260903065057 32 360 0.0 0.0 0.00 0.20 0.20 80 1119.9
20260903065037 56 0.0 0.0 0.00 0.00 0.00 92 1021.5
20260903064017 55 0.0 0.0 0.00 0.00 0.00 92 1021.6
20260903063017 33 360 0.0 0.0 0.00 0.20 0.20 80 1120.0
20260903062016 52 0.0 0.0 0.00 0.00 0.00 92 1021.6
20260903061017 34 360 0.0 0.0 0.00 0.20 0.20 80 1120.0
20260903060038 34 360 0.0 0.0 0.00 0.20 0.20 80 1119.9
20260903055017 35 359 0.0 0.0 0.00 0.20 0.20 80 1119.9
20260903054017 50 0.0 0.0 0.00 0.00 0.00 92 1021.2
20260903053017 36 359 0.0 0.0 0.00 0.20 0.20 80 1119.7
20260903052057 36 358 0.0 0.0 0.00 0.20 0.20 80 1119.6
20260903051017 50 0.0 0.0 0.00 0.00 0.00 91 1021.1
20260903050017 38 357 0.0 0.0 0.00 0.20 0.20 79 1119.3
20260903045017 38 356 0.0 0.0 0.00 0.20 0.20 79 1119.2
20260903044016 39 355 0.0 0.0 0.00 0.20 0.20 79 1119.0
20260903043017 40 354 0.0 0.0 0.00 0.20 0.20 79 1118.8
20260903042037 41 353 0.0 0.0 0.00 0.20 0.20 79 1118.6
20260903041018 50 0.0 0.0 0.00 0.00 0.00 91 1021.0
20260903040017 42 351 0.0 0.0 0.00 0.20 0.20 78 1118.2
20260903035017 43 349 0.0 0.0 0.00 0.20 0.20 78 1117.9
20260903034017 44 348 0.0 0.0 0.00 0.20 0.20 78 1117.6
20260903033016 52 0.0 0.0 0.00 0.00 0.00 91 1021.1
20260903032017 45 345 0.0 0.9 0.00 0.20 0.20 78 1117.0
20260903031017 46 344 0.0 0.9 0.00 0.20 0.20 77 1116.7
20260903030017 47 342 0.9 0.9 0.00 0.20 0.20 77 1116.4
20260903025017 48 340 0.9 0.9 0.00 0.20 0.20 77 1116.1
20260903024037 49 338 0.9 0.9 0.00 0.20 0.20 76 1115.7
20260903023017 50 336 0.9 0.9 0.00 0.20 0.20 76 1115.3
20260903022016 51 334 0.9 0.9 0.00 0.20 0.20 76 1114.9
20260903021037 52 332 0.9 0.9 0.00 0.20 0.20 75 1114.5
20260903020017 52 330 0.9 0.9 0.00 0.20 0.20 75 1114.1
20260903015017 53 328 0.9 0.9 0.01 0.20 0.20 75 1113.7
20260903014016 56 0.0 0.0 0.00 0.00 0.00 89 1021.5
20260903013017 55 323 0.9 0.9 0.03 0.20 0.20 74 1112.7
20260903012017 56 321 0.9 0.9 0.04 0.20 0.20 73 1112.3
20260903011019 57 0.0 0.0 0.00 0.00 0.00 88 1021.5
20260903011017 57 318 0.9 0.9 0.05 0.20 0.20 73 1111.8
20260903010017 57 316 0.9 0.9 0.06 0.20 0.20 73 1111.3
20260903005017 58 313 0.9 1.7 0.06 0.20 0.19 72 1110.8
20260903004037 59 311 0.9 1.7 0.06 0.20 0.18 72 1110.2
20260903003017 60 308 0.9 1.7 0.07 0.20 0.17 71 1109.7
20260903002017 61 305 1.7 1.7 0.07 0.20 0.16 71 1109.1
20260903001017 61 302 1.7 1.7 0.07 0.20 0.15 70 1108.6
20260903000037 62 299 1.7 1.7 0.07 0.20 0.14 70 1108.0
20260902235037 63 296 1.7 1.7 0.07 0.20 0.13 69 1107.4
20260902234017 63 293 1.7 1.7 0.07 0.20 0.12 69 1106.8
20260902233016 58 0.0 0.9 0.00 0.00 0.00 87 1021.6
20260902232018 58 0.0 0.9 0.00 0.00 0.00 87 1021.7
20260902231038 58 0.0 0.9 0.00 0.00 0.00 87 1021.7
20260902230018 58 0.0 0.0 0.00 0.00 0.00 87 1021.6
20260902225018 58 0.0 0.0 0.00 0.00 0.00 86 1021.5
20260902224018 59 0.0 0.0 0.00 0.00 0.00 86 1021.5
20260902223018 59 0.0 0.0 0.00 0.00 0.00 86 1021.6
20260902222017 68 267 2.6 2.6 0.03 0.20 0.03 65 1101.7
20260902221017 68 264 2.6 2.6 0.02 0.20 0.02 64 1101.0
20260902220018 58 0.0 0.0 0.00 0.00 0.00 85 1021.5
20260902215037 69 257 2.6 2.6 0.00 0.20 0.20 63 1099.6
20260902214017 58 0.0 0.0 0.00 0.00 0.00 85 1021.5
20260902213017 69 250 2.6 3.5 0.00 0.20 0.20 62 1098.2
20260902212037 69 246 2.6 3.5 0.00 0.20 0.20 61 1097.5
20260902211017 70 242 2.6 3.5 0.00 0.20 0.20 60 1096.7
20260902210017 70 239 2.6 3.5 0.00 0.20 0.20 60 1096.0
20260902205017 70 235 2.6 3.5 0.00 0.20 0.20 59 1095.3
20260902204016 70 231 3.5 3.5 0.00 0.20 0.20 59 1094.5
20260902203037 70 227 3.5 3.5 0.00 0.20 0.20 58 1093.8
20260902202017 70 224 3.5 4.3 0.00 0.20 0.20 57 1093.0
20260902201017 70 220 3.5 4.3 0.00 0.20 0.20 57 1092.3
20260902200017 70 216 3.5 4.3 0.00 0.20 0.20 56 1091.5
20260902195018 62 0.0 0.0 0.00 0.00 0.00 78 1020.9
20260902194037 70 208 3.5 4.3 0.00 0.20 0.20 55 1090.0
20260902193017 69 204 3.5 4.3 0.00 0.20 0.20 54 1089.2
20260902192017 69 201 3.5 4.3 0.00 0.20 0.20 53 1088.4
20260902191017 69 197 4.3 4.3 0.00 0.20 0.20 53 1087.7
20260902190037 69 193 4.3 5.2 0.00 0.20 0.20 52 1086.9
20260902185037 68 189 4.3 5.2 0.00 0.20 0.20 51 1086.1
20260902184037 68 185 4.3 5.2 0.00 0.20 0.20 51 1085.3
20260902183017 67 181 4.3 5.2 0.00 0.20 0.20 50 1084.6
20260902182017 67 177 4.3 5.2 0.00 0.20 0.20 49 1083.8
20260902181017 66 173 4.3 5.2 0.00 0.20 0.20 49 1083.0
20260902180017 66 169 4.3 5.2 0.00 0.20 0.20 48 1082.2
20260902175017 65 165 4.3 6.1 0.00 0.20 0.20 48 1081.5
20260902174022 69 293 0.9 1.7 0.00 0.00 0.00 66 1019.4
20260902174017 65 161 5.2 6.1 0.00 0.20 0.20 47 1080.7
20260902173016 64 157 5.2 6.1 0.00 0.20 0.20 46 1079.9
20260902172017 64 154 5.2 6.1 0.00 0.20 0.20 46 1079.2
20260902171017 63 150 5.2 6.1 0.00 0.20 0.20 45 1078.4
20260902170017 62 146 5.2 6.1 0.00 0.20 0.20 44 1077.6
20260902165017 62 142 5.2 6.1 0.00 0.20 0.20 44 1076.9
20260902164016 71 293 1.7 4.3 0.00 0.00 0.00 62 1019.5
20260902163017 60 134 5.2 7.0 0.00 0.20 0.20 42 1075.4
20260902162017 59 131 5.2 7.0 0.00 0.20 0.20 42 1074.6
20260902161017 59 127 5.2 7.0 0.00 0.20 0.20 41 1073.9
20260902160017 58 123 6.1 7.0 0.00 0.20 0.20 41 1073.1
20260902155023 73 203 5.2 9.6 0.00 0.00 0.00 57 1019.8
20260902155017 57 119 6.1 7.0 0.00 0.20 0.20 40 1072.4
20260902154019 73 180 3.5 6.1 0.00 0.00 0.00 56 1019.7
20260902154017 56 116 6.1 7.0 0.00 0.20 0.20 39 1071.7
20260902153058 73 203 4.3 7.0 0.00 0.00 0.00 55 1019.8
20260902152037 55 108 6.1 7.0 0.00 0.20 0.20 38 1070.2
20260902152019 73 270 3.5 6.1 0.00 0.00 0.00 56 1019.8
20260902151017 74 225 3.5 7.8 0.00 0.00 0.00 57 1020.0
20260902150018 74 293 3.5 8.7 0.00 0.00 0.00 54 1020.0
20260902145018 75 270 3.5 7.0 0.00 0.00 0.00 53 1020.0
20260902144017 74 203 2.6 6.1 0.00 0.00 0.00 55 1020.0
20260902143017 73 270 4.3 8.7 0.00 0.00 0.00 56 1020.1
20260902142037 73 270 3.5 8.7 0.00 0.00 0.00 56 1020.2
20260902141017 48 84 7.0 7.8 0.00 0.20 0.20 34 1065.4
20260902140017 73 248 3.5 6.1 0.00 0.00 0.00 55 1020.2
20260902135018 73 248 3.5 7.0 0.00 0.00 0.00 54 1020.2
20260902134018 75 248 3.5 7.8 0.00 0.00 0.00 52 1020.4
20260902133017 45 71 7.0 8.7 0.00 0.20 0.20 32 1062.9
20260902132017 44 68 7.0 8.7 0.00 0.20 0.20 31 1062.2
20260902131018 76 225 3.5 7.8 0.00 0.00 0.00 52 1020.6
20260902130017 43 62 7.0 8.7 0.00 0.20 0.20 30 1061.0
20260902125038 73 180 3.5 7.0 0.00 0.00 0.00 55 1020.6
20260902125017 42 59 7.0 8.7 0.00 0.20 0.20 30 1060.5
20260902124037 41 56 7.0 8.7 0.00 0.20 0.20 29 1059.9
20260902124017 74 203 4.3 8.7 0.00 0.00 0.00 56 1020.6